User: anonymous   Login
Location: Unspecified
(0.0000°N, 0.0000°E)
Time: 19:21:29
(UTC+00:00)
Language:

USA 48 - Orbit

View from above orbital plane
View from above orbital plane
View from above satellite
View from above satellite

Ground track
Ground track

The orbit data is extracted from the following two-line orbital elements,

1 20355U 89090B   20022.34186749 0.00000000  00000-0  00000-0 0    02
2 20355  18.2144   4.4334 0283676  51.0315 311.4744  1.00736383    07
Epoch (UTC): 22 January 2020 08:12:17
Eccentricity: 0.0283676
inclination: 18.2144°
perigee height: 34464 km
apogee height: 36849 km
right ascension of ascending node: 4.4334°
argument of perigee: 51.0315°
revolutions per day: 1.00736383
mean anomaly at epoch: 311.4744°
orbit number at epoch: 0

The dashed part of the orbit path shows where the satellite is in the earth's shadow,  

DLR